Location: Arroyo Retuerta
(40.5469°N, 4.3534°W)
Time: 05:27:24
(UTC+00:00)

Cosmos 1733 - Pass Details

Date: 01 June 2020
Orbit: 504 x 523 km, 82.5° (Epoch: 05 July)

Event Time Altitude Azimuth Distance (km) Brightness Sun altitude
Rises 22:38:50 0° 345° (NNW) 2,631 8.2 -23.3°
Reaches altitude 10° 22:41:03 10° 338° (NNW) 1,737 7.0 -23.5°
Enters shadow 22:44:35 42° 270° (W) 739 4.0 -23.8°
